Regional Weather Roundup
Issued by NWS Wakefield, VA

Home | Current Version | Previous Version | Graphics & Text | Print | Product List | Glossary On
Versions: 1 2 3 4 5 6 7 8 9 10 11 12 13 14 15 16 17 18 19 20 21 22 23 24 25 26 27 28
000
ASUS41 KAKQ 191910
RWRAKQ

REGIONAL WEATHER ROUNDUP
NATIONAL WEATHER SERVICE WAKEFIELD VA
300 PM EDT SAT APR 19 2014

Note: "fair" indicates few or no clouds below 12,000 feet with no
significant weather and/or obstructions to visibility. * = Denotes
station may not report precipitation (e.g., rain,snow,etc.),
thunder or fog.

VAZ042-051-052>054-056-192000-
NORTHERN VIRGINIA

CITY           SKY/WX    TMP DP  RH WIND       PRES   REMARKS
WASH NATIONAL  CLOUDY    70  37  29 NE9       30.24F
DULLES         PTSUNNY   66  33  29 VRB3G16   30.24F
FORT BELVOIR   CLOUDY    68  36  30 VRB6      30.24F
QUANTICO       CLOUDY    66  41  40 E9        30.25F
FREDERICKSBRG* CLOUDY    66  41  39 E9        30.24F
STAFFORD*      CLOUDY    66  39  36 NE10G16   30.28F
WARRENTON      CLOUDY    68  46  44 NE12G18   30.24F
CULPEPER*      CLOUDY    70  32  24 NE12      30.25S
MANASSAS*      CLOUDY    68  36  30 N5        30.24F
LEESBURG*      PTSUNNY   68  39  34 NE6       30.25F
WINCHESTER     PTSUNNY   64  34  32 N7        30.25S
$$

VAZ048-049-060>072-079>083-192000-
CENTRAL AND SOUTH CENTRAL VIRGINIA...AND NORTH CENTRAL NORTH CAROLINA

CITY           SKY/WX    TMP DP  RH WIND       PRES   REMARKS
RICHMOND       CLOUDY    65  38  36 E12       30.22F
CHESTERFIELD*  NOT AVBL
HANOVER        CLOUDY    64  40  41 NE8G16    30.25F
TAPPAHANNOCK*  CLOUDY    63  36  35 NE9       30.25F
CHARLOTTSVILLE CLOUDY    64  40  41 E7        30.23F
ORANGE*        CLOUDY    64  37  36 N10G16    30.26S
LOUISA*        CLOUDY    66  39  37 E10G18    30.23S
FARMVILLE*     CLOUDY    64  41  42 NE8       30.20F
SOUTH HILL*    DRIZZLE   54  46  76 CALM      30.25F
ROANOKE RAPIDS CLOUDY    52  46  82 NE9G20    30.21S
RALEIGH        CLOUDY    51  45  79 NE9G17    30.18R
$$

VAZ088>098-192000-
SOUTHEAST VIRGINIA

CITY           SKY/WX    TMP DP  RH WIND       PRES   REMARKS
NORFOLK        LGT RAIN  49  42  77 NE10      30.23F
VIRGINIA BEACH LGT RAIN  48  43  82 NE15      30.22F
NORFOLK NAVAL  LGT RAIN  51  43  74 NE13      30.24F
WEST POINT*    CLOUDY    65  37  36 E12       30.25F
NEWPORT NEWS   CLOUDY    57  44  62 NE12      30.23F
LANGLEY AFB    CLOUDY    53  50  90 NE10      30.24F
FORT EUSTIS    CLOUDY    55  46  72 NE12      30.21F
WILLIAMSBURG*    N/A     61  48  63 NE7       30.24F
FRANKLIN*      CLOUDY    52  50  93 NE14G21   30.22F
WAKEFIELD      CLOUDY    56  44  64 MISG      30.22F
$$

VAZ020-022-025-037-045-192000-
WESTERN AND SOUTHWEST VIRGINIA

CITY           SKY/WX    TMP DP  RH WIND       PRES   REMARKS
STAUNTON*      CLOUDY    64  36  34 NE12G18   30.25S
HOT SPRINGS VA CLOUDY    54  37  54 E7        30.30S
LYNCHBURG      CLOUDY    66  40  38 NE13      30.23F
DANVILLE       CLOUDY    62  44  51 NE12      30.20F
MARTINSVILLE   CLOUDY    64  42  45 NE10G20   30.22F
ROANOKE        CLOUDY    63  39  41 NE7       30.23F
BLACKSBURG     CLOUDY    63  43  48 NE7G16    30.24S
DUBLIN*        CLOUDY    62  37  40 E10       30.22F
MARION*        CLOUDY    62  34  35 E13G21    30.22S
HILLSVILLE*    CLOUDY    61  27  27 E13       30.24R
RICHLANDS*     MOCLDY    67  32  26 NE10G20   30.19F
WISE*          PTSUNNY   64  30  27 NE10G18   30.21R
ABINGDON*      PTSUNNY   69  32  26 E16G23    30.16S
$$

MDZ021>025-VAZ099-100-192000-
SOUTHERN MARYLAND AND THE DELMARVA PENINSULA

CITY           SKY/WX    TMP DP  RH WIND       PRES   REMARKS
PATUXENT RIVER CLOUDY    62  42  47 NE7       30.25F
BAY BRIDGE APT PTSUNNY   63  41  45 W5        30.25S
LEONARDTOWN    CLOUDY    61  39  44 NE3       30.26F
DOVER          PTSUNNY   67  39  35 N8        30.21F
GEORGETOWN     CLOUDY    64  37  36 NE8       30.26S
EASTON         CLOUDY    68  39  34 NE9       30.28F
CAMBRIDGE      CLOUDY    64  36  34 N8        30.23F
SALISBURY      CLOUDY    65  41  41 E10       30.24F
OCEAN CITY     PTSUNNY   57  39  51 NE8       30.26F
WALLOPS ISLAND CLOUDY    59  43  55 E15       30.25F
ACCOMACK*      CLOUDY    59  41  51 E12       30.23F
$$

NCZ012>017-030>032-192000-
EASTERN NORTH CAROLINA

CITY           SKY/WX    TMP DP  RH WIND       PRES   REMARKS
ELIZABETH CITY CLOUDY    53  38  56 NE20G26   30.19F
AHOSKIE*       CLOUDY    50  41  72 NE13G22   30.21S
EDENTON*       CLOUDY    51  45  79 NE10G16   30.17F
CURRITUCK*     DRIZZLE   51  40  67 NE15G25   30.20F
KILL DEVIL HLS LGT RAIN  48  47  96 NE10G17   30.15F
MANTEO         LGT RAIN  49  48  95 NE20      30.16F
CAPE HATTERAS  CLOUDY    54  51  90 NE13G28   30.09S
GOLDSBORO      LGT RAIN  50  49  98 NE9       30.13R
WASHINGTON     CLOUDY    50  46  85 NE10G20   30.15S
GREENVILLE     CLOUDY    50  48  93 NE13G22   30.16F
NEW BERN       LGT RAIN  55  51  86 NE13G23   30.12S FOG
WILMINGTON     CLOUDY    59  55  87 NE23G30   30.03R FOG
$$

VAZ048-192000-
ELSEWHERE

CITY           SKY/WX    TMP DP  RH WIND       PRES   REMARKS
HARRISBURG PA  CLOUDY    64  26  23 NW8G22    30.26F
BALTIMORE      CLOUDY    67  31  26 NE5G17    30.23F
ANNAPOLIS      PTSUNNY   62  38  40 SE6       30.25F
ANDREWS AFB    PTSUNNY   66  38  35 E7        30.23F
WILMINGTON DE  MOSUNNY   69  34  27 N8G17     30.24F
PHILADELPHIA   PTSUNNY   68  26  20 N8G16     30.25S
WILDWOOD NJ*   PTSUNNY   57  43  58 SW9       30.26F
ATLANTIC CITY  PTSUNNY   62  41  46 SE14      30.23R
HENDERSON NC   CLOUDY    51  45  80 NE9G18    30.20F
GREENSBORO     CLOUDY    57  42  57 NE17G25   30.17F
ROCKY MOUNT    CLOUDY    53  47  79 N18       30.16F
FAYETTEVILLE   CLOUDY    52  49  89 NE20G25   30.11S FOG
CHARLOTTE      LGT RAIN  52  50  93 N14G23    30.15S FOG
$$

VAZ100-192000-
MARINE

STATION/POSITION TIME  TEMP    WIND        PRES    WAVE   SWELL
                       AIR SEA DIR/SP/G            HT/PER HT/PER
                 (UTC) (F)     (DEG/KT/KT) (MB)    (FT/S) (FT/S)
44066 TX TWR #4  1900   45 45  330/  6/  8 1024.2R   5/10   5/10
CAPE MAY NJ      1900   51 53  250/  6/  8 1024.4S
LEWES DE         1900   52 49   10/  5/  6 1024.0S
15NM E FENWICK I 1900   48 47              1024.9F   5/10
OCEAN-CITY-INLET 1900   53 47   30/  7/ 11 1024.5F
WACHAPREAGUE VA  1900   53 52   50/ 13/ 18 1023.7F
THOMAS POINT MD  1900   59 54   CALM  /  1 1024.8F
GOOSES REEF MD   1900   54     330/  6/  6 1026.2F
COVE POINT MD    1900   53     340/  9/ 11 1024.5F
SOLOMONS ISLAND  1900      53                N/A
BISHOPS HEAD MD  1900   62 58   20/  4/  8 1023.8F
PINEY POINT MD   1900          100/  9/ 10   N/A
POTOMAC MD       1900   55      40/  4/  6 1023.9F
CAMBRIDGE MD     1900   61 55  320/  2/  5 1023.6F
LEWISETTA VA     1900   57 54   40/  2/  4 1024.2F
RAPPAHANNOCK LGT 1900          340/ 12/ 13 1024.1F
STINGRAY PT      1900   52      20/  8/ 10 1024.0F
YORK RVR RNG VA  1900   53      50/ 11/ 12 1023.3R
YORKTOWN VA      1900   54 54   60/  9/ 10 1023.8S
JAMESTOWN VA     1900   55      70/  8/ 12   N/A
DOMINION TERM VA 1900   51      70/  9/ 13 1023.8F
KIPTOPEKE VA     1900      52   70/ 10/ 14   N/A
CHES BAY BRIDGE  1900   48 51   40/ 13/ 14 1023.5F
CAPE HENRY VA    1900   47      40/ 14/ 16   N/A
CHESAPEAKE LGHT  1800   46      50/ 19/ 20 1024.0F
WILLOUBY STN VA  1900   49      60/ 14/ 15 1022.8F
S CRANEY ISL VA  1900           20/ 12/ 15 1023.7F
CAPE HENRY BUOY  1900      47                N/A     4/11   2/11
1ST LANDING BUOY 1900      45                N/A     4/10   3/10
64NM E OF VA BCH 1900   50 48   30/ 17/ 21 1021.7F   7/11   5/11
DUCK PIER NC     1900   49 49   40/ 20/ 22 1021.0F
44100 DUCK FRF   1900      48                N/A     6/ 9   2/11
44056 DUCK FRF   1900      47                N/A     6/11   2/11
OREGON INLET NC  1900   49 51   10/ 12/ 19 1020.5F
HATTERAS NC      1900   56 56   40/ 16/ 23 1019.0R
CAPE LOOKOUT NC  1800   58      30/ 31/ 36 1016.7S
FRYING PAN SHLS  1900   64 67   40/ 27/ 35 1012.5F   8/ 6
$$



USA.gov is the U.S. government's official web portal to all federal, state and local government web resources and services.